OneWeb SL0499

operational
NORAD ID: 54117 Int'l Des: 2022-138 Owner: ONEWEBN Country: UK Constellation: oneweb
LEOCIRCULARPOLARONEWEB_TYPE

About OneWeb SL0499

Description loading...

Live Position

Loading 3D Globe...

Upcoming Passes

Altitude History

Altitude vs Time

uPlot chart will show altitude changes over time

Two-Line Element Set

1 54117U 22138E 25306.36577553 .00000039 00000-0 64782-4 0 9994
2 54117 87.9238 350.1051 0001800 103.3830 256.7503 13.19725805146908
Epoch: Nov 2, 2025 • Age: 14 hours

Current Status

Altitude 1196.3 km
Velocity 7.25 km/s
Sub-Earth Point -27.27°S, 150.18°E
Launch Date Oct 22, 2022
Age 3 years
Type internet

Technical Details

Classification Payload
Mass 148.00 kg
Dry Mass 140.00 kg
Total Mass 148.00 kg
Length 1.30 m
Diameter 1.00 m
Span 5.00 m
Shape Trapezoid+2 pan
Manufacturer ONEWUS
Bus Type ARROW
Phase Status In Orbit
Owner/State ONEWEBN/UK

Large Constellations

Loading constellations...